Regional Weather Roundup
Issued by NWS

Current Version | Previous Version | Text Only | Print | Product List | Glossary On
Versions: 1 2 3 4 5 6 7 8 9 10 11 12 13 14 15 16 17 18 19 20 21 22 23 24 25 26 27 28 29 30 31 32 33 34 35 36 37 38 39 40 41 42 43 44 45 46 47 48 49 50
000
ASUS45 KSLC 060410
RWRUT

UTAH REGIONAL WEATHER ROUNDUP
NATIONAL WEATHER SERVICE SALT LAKE CITY UT
1000 PM MDT TUE MAY 05 2015

UTZ001>011-023>025-060500-

NORTHERN UTAH

CITY           SKY/WX    TMP DP  RH WIND       PRES   REMARKS
HILL AFB       MOCLDY    57  46  66 NE8       29.84R
LOGAN          PTCLDY    55  48  77 E6        29.80R
OGDEN          CLOUDY    58  45  62 N6        29.82R
PROVO AIRPORT  CLOUDY    57  45  62 N18       29.84R
SALT LAKE CITY CLOUDY    59  49  69 NE9       29.83R
VERNAL         CLOUDY    52  48  86 CALM      29.83R
WENDOVER       CLOUDY    61  45  55 E9        29.84R
HEBER CITY     CLOUDY    50  41  71 CALM      29.86R
WEST JORDAN    CLOUDY    57  48  72 N10G21    29.86R

$$

UTZ012>022-026-027-060500-

SOUTHERN/CENTRAL UTAH

CITY           SKY/WX    TMP DP  RH WIND       PRES   REMARKS
BLANDING       CLOUDY    52  46  82 S5        29.96R
BRYCE CANYON   CLOUDY    44  38  79 W13       30.01R
CEDAR CITY     LGT RAIN  48  43  82 SE9       29.95F
DELTA          CLOUDY    54  47  77 CALM      29.90R
HANKSVILLE     CLOUDY    55  50  82 CALM      29.84R
MILFORD        CLOUDY    52  48  86 S10       29.89F
MOAB/CYNLANDS  PTCLDY    54  53  97 CALM      29.81R
PRICE          CLOUDY    51  47  86 CALM      29.85R
ST GEORGE      CLOUDY    63  46  55 NE3       29.87R
KANAB          CLOUDY    52  45  76 NW12      29.96R

$$

REGIONAL REPORTS     COLORADO/ARIZONA

CITY           SKY/WX    TMP DP  RH WIND       PRES   REMARKS
CRAIG, CO      CLOUDY    51  45  79 W5        29.84R
GRAND JUNCTION CLOUDY    53  51  93 CALM      29.82R
RIFLE          LGT RAIN  50  47  89 CALM      29.84R
MONTROSE       LGT RAIN  51  48  89 NW3       29.88R
CORTEZ         CLOUDY    50  48  93 NE6       29.91R
PAGE, AZ       CLOUDY    57  50  77 S7        29.87R
GRAND CANYON   PTCLDY    50  41  71 SW10      30.01R
KINGMAN        CLEAR     64  39  39 SW9       29.88R
FLAGSTAFF      PTCLDY    45  45 100 SW7       30.05R

$$

REGIONAL REPORTS    NEVADA/IDAHO/WYOMING

CITY           SKY/WX    TMP DP  RH WIND       PRES   REMARKS
LAS VEGAS, NV  PTCLDY    80  33  18 S16G23    29.69R
ELY            CLOUDY    50  37  61 CALM      29.91R
ELKO           MOCLDY    60  34  37 E5        29.81R
POCATELLO, ID  CLEAR     57  30  35 SW10      29.79S
BURLEY         CLOUDY    56  25  30 SW15      29.80R
EVANSTON, WY   CLOUDY    45  41  86 W3        29.90R
ROCK SPRINGS   CLOUDY    48  41  76 W7        29.85R
KEMMERER       CLOUDY    45  41  87 W6        29.89S

$$



USA.gov is the U.S. government's official web portal to all federal, state and local government web resources and services.